shenyang , China , ASIA

  • Thursday
    April 27

    Sunny  Sunny

    72 °F  43 °F

    Northwest  Northwest

    3~4L   3~4L 

  • Friday
    April 28

    Sunny  Sunny

    73 °F  50 °F

    Northwest  Southwest

    3~4L   3~4L 

  • Saturday
    April 29

    Sunny  Cloudy

    82 °F  48 °F

    Southwest  North

    4~5L   3~4L 

  • Sunday
    April 30

    Cloudy  Sunny

    72 °F  46 °F

    North  North

    3~4L   3~4L 

  • Monday
    May 1

    Sunny  Sunny

    77 °F  52 °F

    Southwest  Southwest

    3~4L   3~4L 

  • Tuesday
    May 2

    Sunny  Sunny

    84 °F  54 °F

    Southwest  Southwest

    4~5L   4~5L 

  • Wednesday
    May 3

    Cloudy  Light rain

    81 °F  54 °F

    Southwest  No wind

    4~5L    

Date   Weather Temperature Humidity Total_rain Visibility Wind
11:00 Sunny 61°F 42.4% 0mm 999.9km Southwest  2.9m/s
14:00 Sunny 71°F 28% 0mm 999.9km Northwest  3.7m/s
17:00 Sunny 71°F 28.8% 0mm 999.9km Northwest  3.0m/s
20:00 Sunny 60°F 42.8% 0mm 999.9km Northwest  1.3m/s
23:00 Sunny 55°F 46.8% 0mm 999.9km Northwest  2.7m/s
02:00 Sunny 50°F 52.5% 0mm 999.9km Northwest  3.8m/s
05:00 Sunny 43°F 62.4% 0mm 999.9km Northwest  3.1m/s
08:00 Sunny 55°F 47% 0mm 999.9km Northwest  2.3m/s
11:00 Sunny 69°F 26.5% 0mm 999.9km Northwest  3.3m/s
14:00 Sunny 73°F 35.9% 0mm 999.9km Northwest  5.5m/s
17:00 Sunny 73°F 37.3% 0mm 999.9km Northwest  5.0m/s
20:00 Sunny 65°F 44.9% 0mm 999.9km Northwest  3.3m/s
23:00 Sunny 56°F 58.4% 0mm 999.9km Northeast  2.0m/s
02:00 Sunny 54°F 61.8% 0mm 999.9km Southeast  1.0m/s
05:00 Sunny 50°F 72.2% 0mm 999.9km Southwest  2.4m/s
08:00 Sunny 63°F 49.8% 0mm 999.9km Southwest  2.3m/s
11:00 Sunny 73°F 24.8% 0mm 999.9km Southwest  4.8m/s
14:00 Sunny 82°F 30.9% 0mm 999.9km Southwest  6.9m/s
17:00 Sunny 80°F 32.3% 0mm 999.9km Southwest  5.9m/s
20:00 Sunny 68°F 35.6% 0mm 999.9km Southwest  4.1m/s
23:00 Cloudy 54°F 45% 0mm 999.9km Southwest  2.0m/s
02:00 Cloudy 51°F 41.5% 0mm 999.9km Northeast  4.1m/s
05:00 Cloudy 49°F 39.3% 0mm 999.9km Northeast  3.8m/s
08:00 Cloudy 60°F 33.1% 0mm 999.9km Northeast  4.2m/s
11:00 Cloudy 69°F 18.4% 0mm 999.9km Northeast  4.2m/s
14:00 Cloudy 71°F 19.3% 0mm 999.9km Northeast  3.9m/s
17:00 Cloudy 71°F 20.3% 0mm 999.9km Northeast  3.3m/s
20:00 Cloudy 54°F 46% 0mm 999.9km Northeast  3.4m/s
23:00 Sunny 51°F 52.9% 0mm 999.9km Northeast  2.9m/s
02:00 Sunny 49°F 52.1% 0mm 999.9km Northeast  3.1m/s
05:00 Sunny 47°F 43.8% 0mm 999.9km Southeast  2.9m/s
08:00 Sunny 63°F 36.5% 0mm 999.9km Northeast  1.4m/s
11:00 Sunny 68°F 14.9% 0mm 999.9km Northeast  1.6m/s
14:00 Sunny 75°F 14.3% 0mm 999.9km Southeast  0.5m/s
17:00 Sunny 77°F 13.7% 0mm 999.9km Southwest  2.1m/s
20:00 Sunny 66°F 37.5% 0mm 999.9km Southwest  2.9m/s
23:00 Sunny 54°F 39.5% 0mm 999.9km Southwest  4.2m/s
02:00 Sunny 53°F 59.6% 0mm 999.9km Southeast  2.9m/s
05:00 Sunny 52°F 46.5% 0mm 999.9km Southwest  4.9m/s
08:00 Sunny 71°F 40.3% 0mm 999.9km Southwest  3.0m/s
11:00 Sunny 77°F 22% 0mm 999.9km Southwest  10.0m/s
14:00 Sunny 84°F 28.7% 0mm 999.9km Southwest  4.9m/s
17:00 Sunny 75°F 30.7% 0mm 999.9km Southwest  8.6m/s
20:00 Sunny 68°F 43.7% 0mm 999.9km Southwest  4.5m/s
23:00 Sunny 59°F 49.1% 0mm 999.9km Southwest  5.1m/s
02:00 Sunny 57°F 65.1% 0mm 999.9km Southwest  3.6m/s
05:00 Sunny 54°F 55.1% 0mm 999.9km Southwest  4.8m/s
08:00 Sunny 65°F 46.2% 0mm 999.9km Southwest  4.2m/s
11:00 Cloudy 73°F 13.9% 0mm 999.9km Southwest  7.9m/s
14:00 Cloudy 80°F 18.2% 0mm 999.9km Southwest  6.4m/s
17:00 Cloudy 73°F 30% 0mm 999.9km Southwest  7.0m/s
20:00 Cloudy 72°F 41.8% 0mm 999.9km Southwest  4.4m/s
23:00 Overcast 57°F 78.4% 0mm 999.9km Southeast  4.3m/s
02:00 Overcast 56°F 77.3% 0mm 999.9km Southeast  4.1m/s
05:00 Overcast 56°F 71.2% 0mm 999.9km Southeast  4.0m/s